Showing default

COSMOS 1996, 19787

Orbit data source: Space-Track

COSMOS 1996, 19787 is a payload satellite owned by UNKS (CIS) in LEO that was launched on Fri, 10 Feb 1989 UTC via a TSIKLON-3 launch vehicle from the Plesetsk Missile And Space Complex (PKMTR). Payload-class satellites include a variety of spacecraft equipped with specific instruments for various scientific and technological missions. These include communications satellites like Starlink; space stations such as the ISS; scientific satellites like the Hubble; Earth observation satellites from companies like Planet Labs, Umbra, and HawkEye 360; GPS; miniature CubeSats for education and research; and military/defense satellites.

Loading next visibility...
Identifier
19787, 1989-009C
Orbit
LEO
Country
Flag of CISCIS
Related business
Manufacturer
NPO PM
Mission
Defense Communications
Bus & Motor
STRELA-3, Unknown motor
Mass
225 kg wet, 225 kg dry
Launch date (UTC)
1989-02-10 (37 years ago)
Launch vehicle
TSIKLON-3
Launch site
Plesetsk Missile And Space Complex (PKMTR)
Object type
Payload
Rocket body
Debris
Shape & HBR
Cyl, 0.8 m
Radar Cross Section
1.257 m², Large (>1 m²)

Expand to show TLE details & history
Last TLE update: 6 hours ago

TLE from 6 hours ago
0 COSMOS 1996
1 19787U 89009C   26126.24605312  .00000034  00000-0  12654-3 0  9996
2 19787  82.6172  32.8663 0006863 136.8926  35.1689 12.62924294716137
Epoch: 2026-05-06T05:54Z
TLE epoch observation values (Epoch: 2026-05-06T05:54:18.989Z)
Latitude
7.76345°
Longitude
-100.8293°
Altitude
1,408.591 km
Speed
7.159 km/s
True Right ascension
14h 07m 26s
True Declination
7° 43' 17"
Sunlit
Object was in full shadow at epoch
Visualization orbit readout
Latitude
Unknown
Longitude
Unknown
Altitude
Unknown
Speed
Unknown
Apparent Right ascension
Unknown
Apparent Declination
Unknown
Sunlit
N/A
Visualization observer readout
Local Sidereal Time
20:13:48
Azimuth
Unknown
Elevation
Unknown
Doppler factor
Unknown
Orbital elements
Apogee altitude
1,413.56 km
Perigee altitude
1,402.872 km
Semi-major axis
7,786.353 km
Eccentricity
0.00069
Inclination
82.6172°
RAAN
32.8663°
Arg. of periapsis
136.8926°
True anomaly
35.21423°
Mean anomaly
35.1689°
Eccentric anomaly
35.19156°
Mean motion
3.15894 °/min
Orbital period
113.96 mins
BSTAR
0.00012654
Loading maneuver chart data...
Computing Atmospheric mass density...
Loading historical data...
Loading historical data...
Loading historical data...
Loading historical data...
Loading historical data...
Loading historical data...
Loading historical data...

Documentation

Showing up to 5 results
|